sat.trackr.live / text

‹ back to catalog

LEMUR-2-AFFIE-WAUWIE

NORAD 66295 · 2025-248C

PAYLOAD ACTIVE UNKNOWN

§ Identity

Operator
Country
US
Launch date
2025-11-02
Launch site
AFETR
Launch vehicle
Mass (kg)
RCS (m²)

Purposes: earth_obs

External: N2YO · Heavens-Above · Gunter

§ Orbital elements

Epoch: 2026-05-24T23:01:06.670272Z

Period
94.34 min
Inclination
45.3898°
Eccentricity
0.0010251
Mean motion
15.26391161 rev/d
Perigee alt
479.6 km
Apogee alt
493.6 km
Semi-major
6,864.7 km
B*
7.3053e-4
RAAN
240.7678°
Arg perigee
306.8118°
Mean anomaly
53.1830°
Rev number
3,104

§ Raw data

LEMUR-2-AFFIE-WAUWIE1 66295U 25248C   26144.95910498  .00019134  00000+0  73053-3 0  99992 66295  45.3898 240.7678 0010251 306.8118  53.1830 15.26391161 31040

JSON: /api/v1/satellites/66295 · /tle

For live sub-satellite position, see the globe view (requires WebGL).

§ Visibility from observer

Set your observer location to see the next 7 days of passes ≥ 10°. The values pass through the URL so the page stays shareable.

No JS? Fill the form by hand. The geolocation button needs JavaScript.

§ Radio — SatNOGS DB

ModeDescriptionDownlinkUplink
FM Mode U - Transmitter 401.100 MHz

1 transmitter · refreshed weekly from db.satnogs.org